TimeMDT,TemperatureF,Dew PointF,Humidity,Sea Level PressureIn,VisibilityMPH,Wind Direction,Wind SpeedMPH,Gust SpeedMPH,PrecipitationIn,Events,Conditions,WindDirDegrees,DateUTC
12:15 AM,57.2,51.8,82,30.09,10.0,Calm,Calm,-,N/A,,Clear,0,2013-09-07 06:15:00
12:35 AM,57.2,51.8,82,30.09,10.0,Calm,Calm,-,N/A,,Clear,0,2013-09-07 06:35:00
12:55 AM,59.0,51.8,77,30.09,10.0,Calm,Calm,-,N/A,,Clear,0,2013-09-07 06:55:00
1:15 AM,59.0,51.8,77,30.09,10.0,North,4.6,-,N/A,,Clear,360,2013-09-07 07:15:00
1:35 AM,59.0,51.8,77,30.09,10.0,NE,3.5,-,N/A,,Clear,40,2013-09-07 07:35:00
1:55 AM,59.0,51.8,77,30.10,10.0,Calm,Calm,-,N/A,,Clear,0,2013-09-07 07:55:00
2:15 AM,55.4,53.6,94,30.10,10.0,Calm,Calm,-,N/A,,Clear,0,2013-09-07 08:15:00
2:35 AM,55.4,53.6,94,30.10,10.0,Calm,Calm,-,N/A,,Clear,0,2013-09-07 08:35:00
2:55 AM,53.6,53.6,100,30.10,10.0,Calm,Calm,-,N/A,,Clear,0,2013-09-07 08:55:00
3:15 AM,53.6,53.6,100,30.11,10.0,Calm,Calm,-,N/A,,Clear,0,2013-09-07 09:15:00
3:35 AM,53.6,53.6,100,30.11,10.0,Calm,Calm,-,N/A,,Clear,0,2013-09-07 09:35:00
3:55 AM,51.8,51.8,100,30.11,10.0,SE,3.5,-,N/A,,Clear,130,2013-09-07 09:55:00
4:15 AM,51.8,51.8,100,30.10,10.0,Calm,Calm,-,N/A,,Clear,0,2013-09-07 10:15:00
4:35 AM,53.6,53.6,100,30.10,10.0,Calm,Calm,-,N/A,,Clear,0,2013-09-07 10:35:00
4:55 AM,51.8,51.8,100,30.09,10.0,Calm,Calm,-,N/A,,Clear,0,2013-09-07 10:55:00
5:15 AM,51.8,51.8,100,30.10,10.0,Calm,Calm,-,N/A,,Clear,0,2013-09-07 11:15:00
5:35 AM,50.0,50.0,100,30.10,10.0,Calm,Calm,-,N/A,,Clear,0,2013-09-07 11:35:00
5:55 AM,51.8,51.8,100,30.09,10.0,Calm,Calm,-,N/A,,Clear,0,2013-09-07 11:55:00
6:15 AM,50.0,50.0,100,30.09,10.0,Calm,Calm,-,N/A,,Clear,0,2013-09-07 12:15:00
6:35 AM,50.0,50.0,100,30.10,10.0,Calm,Calm,-,N/A,,Clear,0,2013-09-07 12:35:00
6:55 AM,50.0,50.0,100,30.11,10.0,Calm,Calm,-,N/A,,Clear,0,2013-09-07 12:55:00
7:15 AM,50.0,50.0,100,30.11,10.0,Calm,Calm,-,N/A,,Clear,0,2013-09-07 13:15:00
7:35 AM,50.0,50.0,100,30.11,10.0,Calm,Calm,-,N/A,,Clear,0,2013-09-07 13:35:00
7:55 AM,53.6,53.6,100,30.12,10.0,Calm,Calm,-,N/A,,Clear,0,2013-09-07 13:55:00
8:15 AM,55.4,53.6,94,30.11,10.0,NNW,5.8,-,N/A,,Clear,330,2013-09-07 14:15:00
8:35 AM,55.4,51.8,88,30.12,10.0,NNW,3.5,-,N/A,,Clear,340,2013-09-07 14:35:00
8:55 AM,55.4,51.8,88,30.13,10.0,NW,3.5,-,N/A,,Clear,320,2013-09-07 14:55:00
9:15 AM,57.2,53.6,88,30.13,10.0,NW,3.5,-,N/A,,Clear,320,2013-09-07 15:15:00
9:35 AM,57.2,53.6,88,30.13,10.0,Calm,Calm,-,N/A,,Clear,0,2013-09-07 15:35:00
9:55 AM,59.0,53.6,82,30.13,10.0,Calm,Calm,-,N/A,,Clear,0,2013-09-07 15:55:00
10:15 AM,62.6,50.0,63,30.13,10.0,Calm,Calm,-,N/A,,Clear,0,2013-09-07 16:15:00
10:35 AM,64.4,48.2,56,30.13,10.0,Calm,Calm,-,N/A,,Clear,0,2013-09-07 16:35:00
10:55 AM,64.4,48.2,56,30.13,10.0,NW,3.5,-,N/A,,Clear,310,2013-09-07 16:55:00
11:15 AM,66.2,48.2,52,30.13,10.0,Calm,Calm,-,N/A,,Clear,0,2013-09-07 17:15:00
11:35 AM,66.2,48.2,52,30.12,10.0,NW,3.5,-,N/A,,Clear,320,2013-09-07 17:35:00
11:55 AM,68.0,46.4,46,30.12,10.0,NW,3.5,-,N/A,,Clear,310,2013-09-07 17:55:00
12:15 PM,68.0,46.4,46,30.11,10.0,North,4.6,-,N/A,,Clear,350,2013-09-07 18:15:00
12:35 PM,69.8,46.4,43,30.10,10.0,NNW,5.8,-,N/A,,Clear,340,2013-09-07 18:35:00
12:55 PM,71.6,46.4,41,30.09,10.0,NNW,5.8,-,N/A,,Clear,340,2013-09-07 18:55:00
1:15 PM,73.4,48.2,41,30.09,10.0,WNW,4.6,-,N/A,,Clear,290,2013-09-07 19:15:00
1:35 PM,73.4,48.2,41,30.08,10.0,NNW,3.5,-,N/A,,Clear,340,2013-09-07 19:35:00
1:55 PM,73.4,48.2,41,30.08,10.0,Calm,Calm,-,N/A,,Clear,0,2013-09-07 19:55:00
2:15 PM,75.2,48.2,38,30.07,10.0,West,4.6,-,N/A,,Clear,280,2013-09-07 20:15:00
2:35 PM,75.2,46.4,36,30.06,10.0,Calm,Calm,-,N/A,,Clear,0,2013-09-07 20:35:00
2:55 PM,77.0,46.4,34,30.05,10.0,NW,3.5,-,N/A,,Clear,310,2013-09-07 20:55:00
3:15 PM,77.0,46.4,34,30.04,10.0,NW,6.9,-,N/A,,Clear,320,2013-09-07 21:15:00
3:35 PM,77.0,46.4,34,30.03,10.0,North,6.9,-,N/A,,Clear,10,2013-09-07 21:35:00
3:55 PM,77.0,46.4,34,30.02,10.0,North,5.8,-,N/A,,Clear,360,2013-09-07 21:55:00
4:35 PM,78.8,46.4,32,30.01,10.0,North,6.9,-,N/A,,Clear,360,2013-09-07 22:35:00
4:55 PM,80.6,46.4,30,30.00,10.0,NNW,8.1,-,N/A,,Clear,340,2013-09-07 22:55:00
5:15 PM,80.6,46.4,30,29.99,10.0,North,5.8,-,N/A,,Clear,360,2013-09-07 23:15:00
5:35 PM,80.6,42.8,26,29.99,10.0,NW,4.6,-,N/A,,Clear,320,2013-09-07 23:35:00
5:55 PM,80.6,44.6,28,29.98,10.0,NNE,5.8,-,N/A,,Clear,20,2013-09-07 23:55:00
6:15 PM,80.6,42.8,26,29.98,10.0,NNE,4.6,-,N/A,,Clear,20,2013-09-08 00:15:00
6:35 PM,80.6,44.6,28,29.98,10.0,NW,6.9,-,N/A,,Clear,320,2013-09-08 00:35:00
6:55 PM,80.6,44.6,28,29.97,10.0,NW,5.8,-,N/A,,Clear,320,2013-09-08 00:55:00
7:15 PM,78.8,42.8,28,29.97,10.0,NNW,4.6,-,N/A,,Clear,330,2013-09-08 01:15:00
7:35 PM,78.8,44.6,30,29.97,10.0,NW,6.9,-,N/A,,Clear,320,2013-09-08 01:35:00
7:55 PM,77.0,44.6,32,29.97,10.0,NW,3.5,-,N/A,,Clear,320,2013-09-08 01:55:00
8:15 PM,71.6,51.8,50,29.98,10.0,Calm,Calm,-,N/A,,Clear,0,2013-09-08 02:15:00
8:35 PM,68.0,53.6,60,29.99,10.0,SE,4.6,-,N/A,,Clear,140,2013-09-08 02:35:00
8:55 PM,66.2,55.4,68,29.99,10.0,SE,3.5,-,N/A,,Clear,130,2013-09-08 02:55:00
9:15 PM,66.2,55.4,68,29.99,10.0,Calm,Calm,-,N/A,,Clear,0,2013-09-08 03:15:00
9:35 PM,66.2,55.4,68,29.99,10.0,Calm,Calm,-,N/A,,Clear,0,2013-09-08 03:35:00
9:55 PM,64.4,57.2,77,29.99,10.0,Calm,Calm,-,N/A,,Clear,0,2013-09-08 03:55:00
10:15 PM,68.0,55.4,64,29.99,10.0,Calm,Calm,-,N/A,,Clear,0,2013-09-08 04:15:00
10:35 PM,62.6,57.2,82,29.99,10.0,Calm,Calm,-,N/A,,Clear,0,2013-09-08 04:35:00
10:55 PM,64.4,55.4,73,29.99,10.0,Calm,Calm,-,N/A,,Clear,0,2013-09-08 04:55:00
11:15 PM,62.6,55.4,77,29.99,10.0,NE,3.5,-,N/A,,Clear,50,2013-09-08 05:15:00
11:35 PM,62.6,55.4,77,30.00,10.0,SE,3.5,-,N/A,,Clear,130,2013-09-08 05:35:00
11:55 PM,59.0,55.4,88,30.00,10.0,ESE,4.6,-,N/A,,Clear,110,2013-09-08 05:55:00